CW8968 Weather Reports


time (UTC)temp
C
wind
direction
speed
KPH
gust
KPH
rain 1hr
cm
rain 24hr
cm
rain mn
cm
humidity
%
barometer
mb
20260503184625 15 198 8.0 24.1 0.05 1.55 1.55 96
20260503184123 15 200 9.7 24.1 0.05 1.55 1.55 96
20260503183624 15 205 8.0 20.9 0.03 1.55 1.55 96
20260503183123 15 210 11.3 29.0 0.03 1.55 1.55 96
20260503182623 15 265 11.3 29.0 0.03 1.55 1.55 96
20260503182121 15 207 8.0 24.1 0.00 1.52 1.52 96
20260503181622 15 207 6.4 24.1 0.00 1.52 1.52 96
20260503181119 15 203 6.4 24.1 0.00 1.52 1.52 96
20260503180850 15 234 6.4 16.1 0.00 1.52 1.52 96
20260503180349 15 250 4.8 16.1 0.00 1.52 1.52 96
20260503175621 15 207 4.8 16.1 0.00 1.52 1.52 96
20260503175119 15 171 6.4 16.1 0.00 1.52 1.52 96
20260503174843 15 198 8.0 19.3 0.00 1.52 1.52 96
20260503174104 15 232 6.4 19.3 0.00 1.52 1.52 96
20260503173553 15 232 6.4 19.3 0.00 1.52 1.52 96
20260503173050 15 236 4.8 19.3 0.00 1.52 1.52 96
20260503172545 15 198 4.8 14.5 0.00 1.52 1.52 96
20260503172033 15 191 4.8 14.5 0.00 1.52 1.52 96
20260503171529 15 213 3.2 12.9 0.00 1.52 1.52 96
20260503171254 15 242 3.2 12.9 0.00 1.52 1.52 97
20260503170517 15 243 4.8 14.5 0.00 1.52 1.52 96
20260503150926 15 233 6.4 25.7 1.30 1.45 1.45 94
20260503150420 15 228 8.0 29.0 1.40 1.45 1.45 94
20260503140308 18 229 8.0 22.5 0.00 0.00 0.03 85
20260503131203 19 306 17.7 43.5 0.00 0.00 0.00 77
20260503130703 20 208 17.7 43.5 0.00 0.00 0.00 77
20260503130150 20 212 17.7 48.3 0.00 0.00 0.00 75
20260503110437 22 209 8.0 27.4 0.00 0.00 0.00 73
20260503110157 22 158 9.7 29.0 0.00 0.00 0.00 72
20260503090212 21 130 9.7 33.8 0.00 0.00 0.00 72
20260503081104 20 171 9.7 29.0 0.00 0.00 0.00 74
20260503080551 20 117 8.0 35.4 0.00 0.00 0.00 77
20260503072504 17 152 4.8 19.3 0.00 0.00 0.00 86
20260503072229 17 147 6.4 25.7 0.00 0.00 0.00 87
20260503071453 17 152 3.2 25.7 0.00 0.00 0.00 88
20260503070947 17 146 3.2 14.5 0.00 0.00 0.00 90
20260503070441 16 144 3.2 14.5 0.00 0.00 0.00 90
20260503070201 16 137 3.2 11.3 0.00 0.00 0.00 91
20260503060327 15 169 1.6 14.5 0.00 0.00 0.00 96
20260503054808 14 244 0.0 6.4 0.00 0.00 0.00 96
20260503054302 14 244 0.0 0.0 0.00 0.00 0.00 96
20260503053800 14 244 1.6 9.7 0.00 0.00 0.00 96
20260503053303 14 244 1.6 9.7 0.00 0.00 0.00 96
20260503052800 14 244 0.0 6.4 0.00 0.00 0.00 96
20260503052259 14 163 0.0 6.4 0.00 0.00 0.00 96
20260503052029 14 163 0.0 6.4 0.00 0.00 0.00 96
20260503051529 14 163 0.0 0.0 0.00 0.00 0.00 96
20260503051025 14 163 0.0 0.0 0.00 0.00 0.00 96
20260503050254 14 163 0.0 6.4 0.00 0.00 0.00 96
20260503045750 14 163 1.6 6.4 0.00 0.00 0.00 96
20260503045250 14 162 0.0 6.4 0.00 0.00 0.00 96
20260503044751 14 176 0.0 3.2 0.00 0.00 0.00 96
20260503044252 13 176 0.0 9.7 0.00 0.00 0.00 96
20260503043751 13 176 0.0 9.7 0.00 0.00 0.00 96
20260503043251 13 215 0.0 0.0 0.00 0.00 0.00 95
20260503042749 13 215 0.0 0.0 0.00 0.00 0.00 95
20260503042248 13 215 0.0 0.0 0.00 0.00 0.00 95
20260503042013 13 215 0.0 0.0 0.00 0.00 0.00 95
20260503041235 13 215 0.0 0.0 0.00 0.00 0.00 95
20260503040726 13 215 0.0 0.0 0.00 0.00 0.00 94
20260503040220 13 215 0.0 0.0 0.00 0.00 0.00 94
20260503035718 13 215 0.0 0.0 0.00 0.00 0.00 94
20260503035218 13 215 0.0 0.0 0.00 0.00 0.00 94
20260503034715 13 215 0.0 0.0 0.00 0.00 0.00 94
20260503034447 13 215 0.0 0.0 0.00 0.00 0.00 94
20260503033704 14 215 0.0 0.0 0.00 0.00 0.00 94
20260503033206 14 215 0.0 0.0 0.00 0.00 0.00 93
20260503032704 14 215 1.6 8.0 0.00 0.00 0.00 93
20260503032204 14 215 1.6 8.0 0.00 0.00 0.00 93
20260503031935 14 213 0.0 0.0 0.00 0.00 0.00 93
20260503031206 14 213 0.0 0.0 0.00 0.00 0.00 93
20260503030705 14 213 0.0 1.6 0.00 0.00 0.00 93
20260503030205 15 213 0.0 8.0 0.00 0.00 0.00 93
20260503025704 15 213 0.0 8.0 0.00 0.00 0.00 93
20260503025200 15 213 0.0 0.0 0.00 0.00 0.00 93
20260503024648 15 213 0.0 0.0 0.00 0.00 0.00 93
20260503024420 15 213 0.0 0.0 0.00 0.00 0.00 93
20260503024408 15 213 1.6 29.0 0.00 0.00 0.00 93
20260503023148 15 213 3.2 29.0 0.00 0.00 0.00 93
20260503022919 15 144 6.4 29.0 0.00 0.00 0.00 93
20260503022150 15 160 8.0 29.0 0.00 0.00 0.00 93
20260503021649 15 215 8.0 29.0 0.00 0.00 0.00 94
20260503021149 15 181 6.4 19.3 0.00 0.00 0.00 94
20260503020648 14 185 4.8 19.3 0.00 0.00 0.00 94
20260503020144 14 184 4.8 16.1 0.00 0.00 0.00 94
20260503015646 14 189 1.6 11.3 0.00 0.00 0.00 94
20260503015145 14 161 0.0 9.7 0.00 0.00 0.00 94
20260503014644 14 160 0.0 11.3 0.00 0.00 0.00 95
20260503014144 13 160 0.0 11.3 0.00 0.00 0.00 94
20260503013646 13 161 0.0 11.3 0.00 0.00 0.00 94
20260503013415 13 161 1.6 12.9 0.00 0.00 0.00 94
20260503012644 13 160 1.6 12.9 0.00 0.00 0.00 94
20260503012145 13 43 3.2 9.7 0.00 0.00 0.00 93
20260503012140 13 43 1.6 9.7 0.00 0.00 0.00 93
20260503011358 13 43 0.0 0.0 0.00 0.00 0.00 92
20260503010615 13 43 0.0 0.0 0.00 0.00 0.00 92
20260503010107 13 43 0.0 0.0 0.00 0.00 0.00 92
20260503005600 13 43 3.2 9.7 0.00 0.00 0.00 92
20260503005100 13 43 3.2 9.7 0.00 0.00 0.00 92
20260503004559 13 43 0.0 6.4 0.00 0.00 0.00 91
20260503004059 13 43 3.2 9.7 0.00 0.00 0.00 91
20260503003831 13 43 4.8 9.7 0.00 0.00 0.00 91
20260503003058 13 43 3.2 8.0 0.00 0.00 0.00 91
20260503002600 13 43 1.6 6.4 0.00 0.00 0.00 91
20260503002058 13 43 0.0 0.0 0.00 0.00 0.00 91
20260503001552 13 43 0.0 0.0 0.00 0.00 0.00 90
20260503001040 13 43 0.0 0.0 0.00 0.00 0.00 90
20260503000530 13 43 0.0 0.0 0.00 0.00 0.00 90
20260503000031 13 43 0.0 0.0 0.00 0.00 0.00 90
20260503000026 13 43 0.0 0.0 0.00 0.00 0.00 90
20260502235025 13 43 0.0 0.0 0.00 0.00 0.00 90
20260502234523 14 43 0.0 0.0 0.00 0.00 0.00 90
20260502234022 14 43 0.0 0.0 0.00 0.00 0.00 90
20260502233521 14 43 1.6 8.0 0.00 0.00 0.00 90
20260502233252 14 43 1.6 8.0 0.00 0.00 0.00 90
20260502232753 14 43 3.2 8.0 0.00 0.00 0.00 90
20260502232020 14 43 6.4 12.9 0.00 0.00 0.00 90
20260502231521 14 43 9.7 14.5 0.00 0.00 0.00 90
20260502231020 14 44 11.3 19.3 0.00 0.00 0.00 90
20260502230523 14 37 14.5 22.5 0.00 0.00 0.00 90
20260502230018 15 38 14.5 22.5 0.00 0.00 0.00 91
20260502225518 15 38 16.1 25.7 0.00 0.00 0.00 91
20260502225017 15 46 19.3 32.2 0.00 0.00 0.00 91
20260502224516 15 44 19.3 32.2 0.00 0.00 0.00 91
20260502224018 15 46 17.7 30.6 0.00 0.00 0.00 91
20260502223517 15 41 19.3 30.6 0.00 0.00 0.00 91
20260502223016 15 39 17.7 32.2 0.00 0.00 0.00 91
20260502222515 15 36 16.1 32.2 0.00 0.00 0.00 91
20260502222018 15 38 14.5 22.5 0.00 0.00 0.00 91
20260502221515 15 36 12.9 19.3 0.00 0.00 0.00 90
20260502221013 15 42 12.9 19.3 0.00 0.00 0.00 92
20260502220513 16 42 12.9 22.5 0.00 0.00 0.00 90
20260502220014 15 54 8.0 22.5 0.00 0.00 0.00 90
20260502215513 15 71 4.8 17.7 0.00 0.00 0.00 91
20260502215013 15 68 6.4 20.9 0.00 0.00 0.00 91
20260502214509 15 154 11.3 20.9 0.00 0.00 0.00 90
20260502214004 15 60 12.9 20.9 0.00 0.00 0.00 90
20260502213450 15 49 11.3 20.9 0.00 0.00 0.00 90
20260502212949 15 51 11.3 16.1 0.00 0.00 0.00 90
20260502212944 15 49 11.3 17.7 0.00 0.00 0.00 89
20260502211936 15 49 11.3 17.7 0.00 0.00 0.00 89
20260502211430 15 49 11.3 19.3 0.00 0.00 0.00 89
20260502210921 15 48 11.3 16.1 0.00 0.00 0.00 88
20260502210420 15 50 9.7 16.1 0.00 0.00 0.00 87
20260502205913 15 35 9.7 16.1 0.00 0.00 0.00 87
20260502205407 15 24 9.7 16.1 0.00 0.00 0.00 87
20260502204902 16 10 11.3 16.1 0.00 0.00 0.00 86
20260502204354 16 10 9.7 14.5 0.00 0.00 0.00 86
20260502203848 16 9 8.0 14.5 0.00 0.00 0.00 86
20260502203342 16 9 6.4 11.3 0.00 0.00 0.00 85
20260502202835 16 9 8.0 12.9 0.00 0.00 0.00 85
20260502202329 16 5 6.4 12.9 0.00 0.00 0.00 85
20260502201824 16 5 3.2 11.3 0.00 0.00 0.00 85
20260502201317 16 5 1.6 9.7 0.00 0.00 0.00 85
20260502200812 16 5 0.0 4.8 0.00 0.00 0.00 84
20260502200301 16 5 0.0 4.8 0.00 0.00 0.00 84
20260502195758 16 5 0.0 0.0 0.00 0.00 0.00 82
20260502195253 16 5 0.0 1.6 0.00 0.00 0.00 82
20260502194748 16 5 0.0 1.6 0.00 0.00 0.00 81
20260502194243 17 5 0.0 0.0 0.00 0.00 0.00 80
20260502193735 17 5 0.0 8.0 0.00 0.00 0.00 80
20260502193230 17 5 1.6 12.9 0.00 0.00 0.00 80
20260502192719 17 5 1.6 12.9 0.00 0.00 0.00 79
20260502192219 17 290 0.0 3.2 0.00 0.00 0.00 77
20260502191711 18 289 0.0 0.0 0.00 0.00 0.00 76
20260502191206 18 289 0.0 0.0 0.00 0.00 0.00 75
20260502190659 19 289 0.0 0.0 0.00 0.00 0.00 75
20260502190421 19 289 0.0 3.2 0.00 0.00 0.00 74
20260502185648 20 290 0.0 3.2 0.00 0.00 0.00 73
20260502185141 20 288 0.0 8.0 0.00 0.00 0.00 73